Time,TemperatureF,DewpointF,PressureIn,WindDirection,WindDirectionDegrees,WindSpeedMPH,WindSpeedGustMPH,Humidity,HourlyPrecipIn,Conditions,Clouds,dailyrainin,SoftwareType,DateUTC
2013-06-03 00:02:00,58.1,38.5,30.00,NNE,23,1.0,1.0,48,0.00,,,0.00,VWS V12.08,2013-06-03 05:02:00,
2013-06-03 00:07:00,57.3,39.8,30.00,NNE,13,0.0,1.0,52,0.00,,,0.00,VWS V12.08,2013-06-03 05:07:00,
2013-06-03 00:12:00,57.4,39.9,30.00,NNW,339,0.0,2.0,52,0.00,,,0.00,VWS V12.08,2013-06-03 05:12:00,
2013-06-03 00:17:00,57.6,39.6,30.00,NW,318,1.0,2.0,51,0.00,,,0.00,VWS V12.08,2013-06-03 05:17:00,
2013-06-03 00:22:00,57.9,38.9,30.00,NW,318,0.0,2.0,49,0.00,,,0.00,VWS V12.08,2013-06-03 05:22:00,
2013-06-03 00:27:00,57.7,40.2,30.00,ENE,61,0.0,2.0,52,0.00,,,0.00,VWS V12.08,2013-06-03 05:27:00,
2013-06-03 00:32:00,56.1,41.1,30.00,ENE,77,3.0,3.0,57,0.00,,,0.00,VWS V12.08,2013-06-03 05:32:00,
2013-06-03 00:37:00,54.2,41.9,30.00,ENE,66,1.0,3.0,63,0.00,,,0.00,VWS V12.08,2013-06-03 05:37:00,
2013-06-03 00:42:00,53.5,41.2,30.00,NNE,22,1.0,3.0,63,0.00,,,0.00,VWS V12.08,2013-06-03 05:42:00,
2013-06-03 00:47:00,53.4,41.5,30.00,NNE,19,1.0,3.0,64,0.00,,,0.00,VWS V12.08,2013-06-03 05:47:00,
2013-06-03 00:52:00,53.8,41.9,29.99,NNE,26,0.0,3.0,64,0.00,,,0.00,VWS V12.08,2013-06-03 05:52:00,
2013-06-03 00:57:00,54.2,41.1,30.00,NNE,26,0.0,3.0,61,0.00,,,0.00,VWS V12.08,2013-06-03 05:57:00,
2013-06-03 01:02:00,55.0,41.0,30.00,NNE,27,2.0,3.0,59,0.00,,,0.00,VWS V12.08,2013-06-03 06:02:00,
2013-06-03 01:07:00,54.3,42.0,29.99,NNE,32,1.0,3.0,63,0.00,,,0.00,VWS V12.08,2013-06-03 06:07:00,
2013-06-03 01:12:00,54.2,42.3,29.99,NE,49,3.0,4.0,64,0.00,,,0.00,VWS V12.08,2013-06-03 06:12:00,
2013-06-03 01:17:00,53.5,42.4,29.99,NNE,16,2.0,4.0,66,0.00,,,0.00,VWS V12.08,2013-06-03 06:17:00,
2013-06-03 01:22:00,53.0,42.3,29.99,NNE,19,1.0,4.0,67,0.00,,,0.00,VWS V12.08,2013-06-03 06:22:00,
2013-06-03 01:27:00,52.9,43.8,29.99,NE,43,3.0,4.0,71,0.00,,,0.00,VWS V12.08,2013-06-03 06:27:00,
2013-06-03 01:32:00,52.5,43.8,29.99,NNE,15,4.0,4.0,72,0.00,,,0.00,VWS V12.08,2013-06-03 06:32:00,
2013-06-03 01:37:00,52.4,43.3,29.99,NNE,28,3.0,5.0,71,0.00,,,0.00,VWS V12.08,2013-06-03 06:37:00,
2013-06-03 01:42:00,52.5,42.6,29.99,NNE,26,2.0,5.0,69,0.00,,,0.00,VWS V12.08,2013-06-03 06:42:00,
2013-06-03 01:47:00,52.5,42.6,29.99,NNE,28,2.0,5.0,69,0.00,,,0.00,VWS V12.08,2013-06-03 06:47:00,
2013-06-03 01:52:00,52.4,42.5,29.98,NE,49,1.0,5.0,69,0.00,,,0.00,VWS V12.08,2013-06-03 06:52:00,
2013-06-03 01:57:00,52.3,42.8,29.98,East,82,0.0,5.0,70,0.00,,,0.00,VWS V12.08,2013-06-03 06:57:00,
2013-06-03 02:02:00,52.1,42.2,29.98,NNE,32,2.0,3.0,69,0.00,,,0.00,VWS V12.08,2013-06-03 07:02:00,
2013-06-03 02:07:00,51.9,42.4,29.98,NNE,20,4.0,4.0,70,0.00,,,0.00,VWS V12.08,2013-06-03 07:07:00,
2013-06-03 02:12:00,51.7,43.0,29.98,NNE,25,3.0,5.0,72,0.00,,,0.00,VWS V12.08,2013-06-03 07:12:00,
2013-06-03 02:17:00,51.5,43.1,29.98,NNE,23,6.0,6.0,73,0.00,,,0.00,VWS V12.08,2013-06-03 07:17:00,
2013-06-03 02:22:00,51.5,42.4,29.98,NE,40,4.0,6.0,71,0.00,,,0.00,VWS V12.08,2013-06-03 07:22:00,
2013-06-03 02:27:00,51.4,42.3,29.98,NNE,31,4.0,6.0,71,0.00,,,0.00,VWS V12.08,2013-06-03 07:27:00,
2013-06-03 02:32:00,51.3,42.2,29.98,NE,40,3.0,4.0,71,0.00,,,0.00,VWS V12.08,2013-06-03 07:32:00,
2013-06-03 02:37:00,51.2,42.1,29.98,NE,42,0.0,4.0,71,0.00,,,0.00,VWS V12.08,2013-06-03 07:37:00,
2013-06-03 02:42:00,51.2,42.1,29.98,NNE,22,2.0,4.0,71,0.00,,,0.00,VWS V12.08,2013-06-03 07:42:00,
2013-06-03 02:47:00,51.0,41.9,29.98,NNE,25,2.0,4.0,71,0.00,,,0.00,VWS V12.08,2013-06-03 07:47:00,
2013-06-03 02:52:00,50.7,42.0,29.98,NE,42,3.0,4.0,72,0.00,,,0.00,VWS V12.08,2013-06-03 07:52:00,
2013-06-03 02:57:00,50.5,42.2,29.98,NE,47,2.0,4.0,73,0.00,,,0.00,VWS V12.08,2013-06-03 07:57:00,
2013-06-03 03:02:00,50.5,42.5,29.97,NE,41,2.0,3.0,74,0.00,,,0.00,VWS V12.08,2013-06-03 08:02:00,
2013-06-03 03:07:00,50.3,42.3,29.98,NE,35,2.0,5.0,74,0.00,,,0.00,VWS V12.08,2013-06-03 08:07:00,
2013-06-03 03:12:00,50.1,42.5,29.98,NNE,31,3.0,5.0,75,0.00,,,0.00,VWS V12.08,2013-06-03 08:12:00,
2013-06-03 03:17:00,49.8,42.5,29.98,NNE,22,3.0,5.0,76,0.00,,,0.00,VWS V12.08,2013-06-03 08:17:00,
2013-06-03 03:22:00,49.6,42.7,29.98,NNE,26,2.0,5.0,77,0.00,,,0.00,VWS V12.08,2013-06-03 08:22:00,
2013-06-03 03:27:00,49.4,42.5,29.98,NNE,28,2.0,5.0,77,0.00,,,0.00,VWS V12.08,2013-06-03 08:27:00,
2013-06-03 03:32:00,49.4,42.2,29.98,NNE,27,3.0,5.0,76,0.00,,,0.00,VWS V12.08,2013-06-03 08:32:00,
2013-06-03 03:37:00,49.5,42.3,29.98,NE,35,2.0,5.0,76,0.00,,,0.00,VWS V12.08,2013-06-03 08:37:00,
2013-06-03 03:42:00,49.4,42.2,29.98,NE,35,4.0,5.0,76,0.00,,,0.00,VWS V12.08,2013-06-03 08:42:00,
2013-06-03 03:47:00,49.2,42.0,29.97,ENE,61,1.0,5.0,76,0.00,,,0.00,VWS V12.08,2013-06-03 08:47:00,
2013-06-03 03:52:00,49.2,42.3,29.98,NE,43,2.0,5.0,77,0.00,,,0.00,VWS V12.08,2013-06-03 08:52:00,
2013-06-03 03:57:00,49.1,42.5,29.98,NE,42,1.0,5.0,78,0.00,,,0.00,VWS V12.08,2013-06-03 08:57:00,
2013-06-03 04:02:00,48.9,42.7,29.98,NE,49,3.0,5.0,79,0.00,,,0.00,VWS V12.08,2013-06-03 09:02:00,
2013-06-03 04:07:00,48.5,42.3,29.97,NE,34,3.0,5.0,79,0.00,,,0.00,VWS V12.08,2013-06-03 09:07:00,
2013-06-03 04:12:00,48.3,42.4,29.97,NNE,28,3.0,5.0,80,0.00,,,0.00,VWS V12.08,2013-06-03 09:12:00,
2013-06-03 04:17:00,48.2,42.3,29.97,NNE,32,3.0,5.0,80,0.00,,,0.00,VWS V12.08,2013-06-03 09:17:00,
2013-06-03 04:22:00,48.1,42.2,29.97,NNE,31,3.0,5.0,80,0.00,,,0.00,VWS V12.08,2013-06-03 09:22:00,
2013-06-03 04:27:00,48.1,42.2,29.97,NE,38,4.0,5.0,80,0.00,,,0.00,VWS V12.08,2013-06-03 09:27:00,
2013-06-03 04:32:00,48.1,42.5,29.97,NE,42,3.0,4.0,81,0.00,,,0.00,VWS V12.08,2013-06-03 09:32:00,
2013-06-03 04:37:00,48.1,42.5,29.97,NE,40,4.0,4.0,81,0.00,,,0.00,VWS V12.08,2013-06-03 09:37:00,
2013-06-03 04:42:00,48.0,42.1,29.97,NE,38,5.0,6.0,80,0.00,,,0.00,VWS V12.08,2013-06-03 09:42:00,
2013-06-03 04:47:00,47.9,42.4,29.97,NE,38,4.0,6.0,81,0.00,,,0.00,VWS V12.08,2013-06-03 09:47:00,
2013-06-03 04:52:00,47.8,42.3,29.98,NE,44,5.0,6.0,81,0.00,,,0.00,VWS V12.08,2013-06-03 09:52:00,
2013-06-03 04:57:00,47.7,42.2,29.98,NNE,31,4.0,6.0,81,0.00,,,0.00,VWS V12.08,2013-06-03 09:57:00,
2013-06-03 05:02:00,47.7,42.5,29.98,NE,44,3.0,3.0,82,0.00,,,0.00,VWS V12.08,2013-06-03 10:02:00,
2013-06-03 05:07:00,47.8,42.3,29.98,ESE,113,0.0,3.0,81,0.00,,,0.00,VWS V12.08,2013-06-03 10:07:00,
2013-06-03 05:12:00,47.9,42.0,29.98,East,86,0.0,3.0,80,0.00,,,0.00,VWS V12.08,2013-06-03 10:12:00,
2013-06-03 05:17:00,47.9,42.0,29.98,NE,47,0.0,3.0,80,0.00,,,0.00,VWS V12.08,2013-06-03 10:17:00,
2013-06-03 05:22:00,47.8,41.9,29.98,NNE,23,3.0,3.0,80,0.00,,,0.00,VWS V12.08,2013-06-03 10:22:00,
2013-06-03 05:27:00,47.5,42.0,29.98,NNE,31,4.0,5.0,81,0.00,,,0.00,VWS V12.08,2013-06-03 10:27:00,
2013-06-03 05:32:00,47.1,41.6,29.98,NE,34,3.0,4.0,81,0.00,,,0.00,VWS V12.08,2013-06-03 10:32:00,
2013-06-03 05:37:00,47.1,41.9,29.98,NE,40,4.0,4.0,82,0.00,,,0.00,VWS V12.08,2013-06-03 10:37:00,
2013-06-03 05:42:00,47.1,41.6,29.98,NNE,31,4.0,5.0,81,0.00,,,0.00,VWS V12.08,2013-06-03 10:42:00,
2013-06-03 05:47:00,47.1,41.9,29.98,NE,34,2.0,5.0,82,0.00,,,0.00,VWS V12.08,2013-06-03 10:47:00,
2013-06-03 05:52:00,47.1,41.9,29.99,NNE,32,2.0,5.0,82,0.00,,,0.00,VWS V12.08,2013-06-03 10:52:00,
2013-06-03 05:57:00,47.2,42.3,29.98,NE,38,3.0,5.0,83,0.00,,,0.00,VWS V12.08,2013-06-03 10:57:00,
2013-06-03 06:02:00,47.5,42.3,29.99,NE,43,4.0,4.0,82,0.00,,,0.00,VWS V12.08,2013-06-03 11:02:00,
2013-06-03 06:07:00,47.7,42.5,29.99,NE,44,1.0,4.0,82,0.00,,,0.00,VWS V12.08,2013-06-03 11:07:00,
2013-06-03 06:12:00,48.0,42.5,29.99,NE,49,2.0,4.0,81,0.00,,,0.00,VWS V12.08,2013-06-03 11:12:00,
2013-06-03 06:17:00,48.2,42.3,29.99,ENE,65,0.0,4.0,80,0.00,,,0.00,VWS V12.08,2013-06-03 11:17:00,
2013-06-03 06:22:00,48.7,42.8,29.99,ENE,58,1.0,4.0,80,0.00,,,0.00,VWS V12.08,2013-06-03 11:22:00,
2013-06-03 06:27:00,49.0,42.8,29.99,NE,40,1.0,4.0,79,0.00,,,0.00,VWS V12.08,2013-06-03 11:27:00,
2013-06-03 06:32:00,49.2,43.0,29.99,NE,46,1.0,2.0,79,0.00,,,0.00,VWS V12.08,2013-06-03 11:32:00,
2013-06-03 06:37:00,49.6,43.0,29.99,ENE,70,1.0,2.0,78,0.00,,,0.00,VWS V12.08,2013-06-03 11:37:00,
2013-06-03 06:42:00,50.2,43.3,29.99,ENE,76,2.0,3.0,77,0.00,,,0.00,VWS V12.08,2013-06-03 11:42:00,
2013-06-03 06:47:00,50.4,43.1,30.00,ENE,76,2.0,3.0,76,0.00,,,0.00,VWS V12.08,2013-06-03 11:47:00,
2013-06-03 06:52:00,50.9,43.6,30.00,East,88,1.0,3.0,76,0.00,,,0.00,VWS V12.08,2013-06-03 11:52:00,
2013-06-03 06:57:00,51.5,43.8,30.00,ENE,78,0.0,3.0,75,0.00,,,0.00,VWS V12.08,2013-06-03 11:57:00,
2013-06-03 07:02:00,51.7,44.0,30.00,East,94,2.0,3.0,75,0.00,,,0.00,VWS V12.08,2013-06-03 12:02:00,
2013-06-03 07:07:00,51.8,44.5,30.00,East,98,3.0,4.0,76,0.00,,,0.00,VWS V12.08,2013-06-03 12:07:00,
2013-06-03 07:12:00,52.2,44.9,30.00,East,84,1.0,4.0,76,0.00,,,0.00,VWS V12.08,2013-06-03 12:12:00,
2013-06-03 07:17:00,52.6,45.3,30.00,ESE,117,4.0,4.0,76,0.00,,,0.00,VWS V12.08,2013-06-03 12:17:00,
2013-06-03 07:22:00,52.7,45.7,30.00,ESE,105,1.0,4.0,77,0.00,,,0.00,VWS V12.08,2013-06-03 12:22:00,
2013-06-03 07:27:00,53.3,45.9,30.00,SE,130,4.0,5.0,76,0.00,,,0.00,VWS V12.08,2013-06-03 12:27:00,
2013-06-03 07:32:00,53.7,46.3,30.00,SSE,158,2.0,4.0,76,0.00,,,0.00,VWS V12.08,2013-06-03 12:32:00,
2013-06-03 07:37:00,54.3,46.6,30.00,SSW,207,4.0,5.0,75,0.00,,,0.00,VWS V12.08,2013-06-03 12:37:00,
2013-06-03 07:42:00,54.7,46.2,29.99,SE,142,6.0,10.0,73,0.00,,,0.00,VWS V12.08,2013-06-03 12:42:00,
2013-06-03 07:47:00,55.0,46.5,29.99,South,190,4.0,10.0,73,0.00,,,0.00,VWS V12.08,2013-06-03 12:47:00,
2013-06-03 07:52:00,55.5,46.6,29.99,South,187,5.0,10.0,72,0.00,,,0.00,VWS V12.08,2013-06-03 12:52:00,
2013-06-03 07:57:00,55.9,46.7,29.99,SSE,153,4.0,14.0,71,0.00,,,0.00,VWS V12.08,2013-06-03 12:57:00,
2013-06-03 08:02:00,56.3,47.0,29.99,South,173,4.0,9.0,71,0.00,,,0.00,VWS V12.08,2013-06-03 13:02:00,
2013-06-03 08:07:00,56.7,47.0,29.99,South,184,5.0,14.0,70,0.00,,,0.00,VWS V12.08,2013-06-03 13:07:00,
2013-06-03 08:12:00,57.0,47.3,29.98,ESE,116,2.0,14.0,70,0.00,,,0.00,VWS V12.08,2013-06-03 13:12:00,
2013-06-03 08:17:00,57.4,47.3,29.98,SSW,205,10.0,14.0,69,0.00,,,0.00,VWS V12.08,2013-06-03 13:17:00,
2013-06-03 08:22:00,57.7,47.6,29.98,SE,140,11.0,14.0,69,0.00,,,0.00,VWS V12.08,2013-06-03 13:22:00,
2013-06-03 08:27:00,58.2,48.1,29.98,SW,214,6.0,14.0,69,0.00,,,0.00,VWS V12.08,2013-06-03 13:27:00,
2013-06-03 08:32:00,58.4,47.9,29.98,SE,135,7.0,12.0,68,0.00,,,0.00,VWS V12.08,2013-06-03 13:32:00,
2013-06-03 08:37:00,58.7,48.2,29.98,SSE,163,9.0,15.0,68,0.00,,,0.00,VWS V12.08,2013-06-03 13:37:00,
2013-06-03 08:42:00,59.1,48.2,29.97,SSW,206,9.0,17.0,67,0.00,,,0.00,VWS V12.08,2013-06-03 13:42:00,
2013-06-03 08:47:00,59.6,48.6,29.98,South,178,7.0,17.0,67,0.00,,,0.00,VWS V12.08,2013-06-03 13:47:00,
2013-06-03 08:52:00,59.9,48.5,29.98,SW,230,10.0,17.0,66,0.00,,,0.00,VWS V12.08,2013-06-03 13:52:00,
2013-06-03 08:57:00,59.8,48.4,29.98,South,182,9.0,17.0,66,0.00,,,0.00,VWS V12.08,2013-06-03 13:57:00,
2013-06-03 09:02:00,59.6,48.2,29.98,South,181,12.0,13.0,66,0.00,,,0.00,VWS V12.08,2013-06-03 14:02:00,
2013-06-03 09:07:00,60.0,48.6,29.98,SSW,205,11.0,13.0,66,0.00,,,0.00,VWS V12.08,2013-06-03 14:07:00,
2013-06-03 09:12:00,60.5,48.7,29.98,SSW,202,10.0,13.0,65,0.00,,,0.00,VWS V12.08,2013-06-03 14:12:00,
2013-06-03 09:17:00,60.9,48.2,29.98,South,169,11.0,15.0,63,0.00,,,0.00,VWS V12.08,2013-06-03 14:17:00,
2013-06-03 09:22:00,61.3,48.6,29.98,South,175,3.0,15.0,63,0.00,,,0.00,VWS V12.08,2013-06-03 14:22:00,
2013-06-03 09:27:00,62.0,48.4,29.98,SSE,163,12.0,15.0,61,0.00,,,0.00,VWS V12.08,2013-06-03 14:27:00,
2013-06-03 09:32:00,62.2,48.2,29.99,SW,221,4.0,14.0,60,0.00,,,0.00,VWS V12.08,2013-06-03 14:32:00,
2013-06-03 09:37:00,62.4,47.9,29.99,SW,219,8.0,14.0,59,0.00,,,0.00,VWS V12.08,2013-06-03 14:37:00,
2013-06-03 09:42:00,62.8,47.8,29.99,SSE,168,6.0,16.0,58,0.00,,,0.00,VWS V12.08,2013-06-03 14:42:00,
2013-06-03 09:47:00,62.9,47.9,29.99,South,190,14.0,16.0,58,0.00,,,0.00,VWS V12.08,2013-06-03 14:47:00,
2013-06-03 09:52:00,62.7,47.7,29.99,South,171,5.0,16.0,58,0.00,,,0.00,VWS V12.08,2013-06-03 14:52:00,
2013-06-03 09:57:00,62.8,47.4,29.99,SE,136,6.0,16.0,57,0.00,,,0.00,VWS V12.08,2013-06-03 14:57:00,
2013-06-03 10:02:00,62.9,47.5,29.98,ESE,111,7.0,11.0,57,0.00,,,0.00,VWS V12.08,2013-06-03 15:02:00,
2013-06-03 10:07:00,62.9,47.5,29.98,ENE,61,5.0,13.0,57,0.00,,,0.00,VWS V12.08,2013-06-03 15:07:00,
2013-06-03 10:12:00,62.8,46.9,29.98,SSW,203,4.0,13.0,56,0.00,,,0.00,VWS V12.08,2013-06-03 15:12:00,
2013-06-03 10:17:00,62.7,46.8,29.98,SSE,148,6.0,13.0,56,0.00,,,0.00,VWS V12.08,2013-06-03 15:17:00,
2013-06-03 10:22:00,62.4,46.5,29.98,SSE,157,4.0,13.0,56,0.00,,,0.00,VWS V12.08,2013-06-03 15:22:00,
2013-06-03 10:27:00,62.3,45.5,29.98,SE,134,7.0,13.0,54,0.00,,,0.00,VWS V12.08,2013-06-03 15:27:00,
2013-06-03 10:32:00,62.1,46.2,29.97,SE,144,8.0,10.0,56,0.00,,,0.00,VWS V12.08,2013-06-03 15:32:00,
2013-06-03 10:37:00,61.9,46.5,29.96,SE,133,5.0,11.0,57,0.00,,,0.00,VWS V12.08,2013-06-03 15:37:00,
2013-06-03 10:42:00,62.1,46.7,29.95,SE,126,8.0,14.0,57,0.00,,,0.00,VWS V12.08,2013-06-03 15:42:00,
2013-06-03 10:47:00,62.2,46.3,29.95,ESE,105,9.0,15.0,56,0.00,,,0.00,VWS V12.08,2013-06-03 15:47:00,
2013-06-03 10:52:00,62.4,47.0,29.95,ESE,119,9.0,15.0,57,0.00,,,0.00,VWS V12.08,2013-06-03 15:52:00,
2013-06-03 10:57:00,62.3,46.0,29.95,SE,130,15.0,16.0,55,0.00,,,0.00,VWS V12.08,2013-06-03 15:57:00,
2013-06-03 11:02:00,62.5,46.6,29.94,SE,133,10.0,12.0,56,0.00,,,0.00,VWS V12.08,2013-06-03 16:02:00,
2013-06-03 11:07:00,62.6,45.7,29.94,SE,137,11.0,17.0,54,0.00,,,0.00,VWS V12.08,2013-06-03 16:07:00,
2013-06-03 11:12:00,62.6,46.2,29.93,ESE,105,9.0,19.0,55,0.00,,,0.00,VWS V12.08,2013-06-03 16:12:00,
2013-06-03 11:17:00,62.7,45.8,29.93,SE,139,13.0,19.0,54,0.00,,,0.00,VWS V12.08,2013-06-03 16:17:00,
2013-06-03 11:22:00,62.8,45.4,29.93,SSE,147,17.0,19.0,53,0.00,,,0.00,VWS V12.08,2013-06-03 16:22:00,
2013-06-03 11:27:00,63.0,46.6,29.93,ESE,109,12.0,19.0,55,0.00,,,0.00,VWS V12.08,2013-06-03 16:27:00,
2013-06-03 11:32:00,63.1,45.2,29.93,SW,215,11.0,17.0,52,0.00,,,0.00,VWS V12.08,2013-06-03 16:32:00,
2013-06-03 11:37:00,63.3,45.9,29.93,SE,126,13.0,22.0,53,0.00,,,0.00,VWS V12.08,2013-06-03 16:37:00,
2013-06-03 11:42:00,63.6,45.7,29.93,ESE,112,15.0,22.0,52,0.00,,,0.00,VWS V12.08,2013-06-03 16:42:00,
2013-06-03 11:47:00,63.9,46.0,29.93,ENE,58,8.0,24.0,52,0.00,,,0.00,VWS V12.08,2013-06-03 16:47:00,
2013-06-03 11:52:00,64.7,45.7,29.94,SSE,157,20.0,24.0,50,0.00,,,0.00,VWS V12.08,2013-06-03 16:52:00,
2013-06-03 11:57:00,65.2,46.1,29.93,ENE,57,14.0,24.0,50,0.00,,,0.00,VWS V12.08,2013-06-03 16:57:00,
2013-06-03 12:02:00,65.0,45.9,29.94,ESE,121,19.0,21.0,50,0.00,,,0.00,VWS V12.08,2013-06-03 17:02:00,
2013-06-03 12:07:00,64.9,45.8,29.94,SE,137,10.0,22.0,50,0.00,,,0.00,VWS V12.08,2013-06-03 17:07:00,
2013-06-03 12:12:00,65.5,46.4,29.94,SE,135,10.0,22.0,50,0.00,,,0.00,VWS V12.08,2013-06-03 17:12:00,
2013-06-03 12:17:00,65.5,46.4,29.94,SE,132,11.0,23.0,50,0.00,,,0.00,VWS V12.08,2013-06-03 17:17:00,
2013-06-03 12:22:00,65.8,45.6,29.94,ESE,109,22.0,23.0,48,0.00,,,0.00,VWS V12.08,2013-06-03 17:22:00,
2013-06-03 12:27:00,66.1,45.9,29.93,ESE,116,17.0,23.0,48,0.00,,,0.00,VWS V12.08,2013-06-03 17:27:00,
2013-06-03 12:32:00,65.8,45.6,29.92,SE,137,9.0,23.0,48,0.00,,,0.00,VWS V12.08,2013-06-03 17:32:00,
2013-06-03 12:37:00,65.3,45.1,29.91,SSE,155,18.0,26.0,48,0.00,,,0.00,VWS V12.08,2013-06-03 17:37:00,
2013-06-03 12:42:00,65.2,45.6,29.91,ESE,121,12.0,26.0,49,0.00,,,0.00,VWS V12.08,2013-06-03 17:42:00,
2013-06-03 12:47:00,65.6,44.3,29.92,East,101,15.0,26.0,46,0.00,,,0.00,VWS V12.08,2013-06-03 17:47:00,
2013-06-03 12:52:00,66.1,45.3,29.92,SE,135,16.0,27.0,47,0.00,,,0.00,VWS V12.08,2013-06-03 17:52:00,
2013-06-03 12:57:00,66.8,44.8,29.91,SE,140,17.0,27.0,45,0.00,,,0.00,VWS V12.08,2013-06-03 17:57:00,
2013-06-03 13:02:00,67.1,43.9,29.91,SSE,160,12.0,23.0,43,0.00,,,0.00,VWS V12.08,2013-06-03 18:02:00,
2013-06-03 13:07:00,67.1,43.9,29.91,SSE,148,15.0,25.0,43,0.00,,,0.00,VWS V12.08,2013-06-03 18:07:00,
2013-06-03 13:12:00,67.7,45.0,29.91,SE,139,9.0,25.0,44,0.00,,,0.00,VWS V12.08,2013-06-03 18:12:00,
2013-06-03 13:17:00,68.5,45.1,29.90,SE,130,14.0,25.0,43,0.00,,,0.00,VWS V12.08,2013-06-03 18:17:00,
2013-06-03 13:22:00,68.5,44.5,29.90,SE,139,17.0,25.0,42,0.00,,,0.00,VWS V12.08,2013-06-03 18:22:00,
2013-06-03 13:27:00,68.5,44.5,29.90,SSE,149,15.0,25.0,42,0.00,,,0.00,VWS V12.08,2013-06-03 18:27:00,
2013-06-03 13:32:00,68.9,43.6,29.90,SE,138,22.0,23.0,40,0.00,,,0.00,VWS V12.08,2013-06-03 18:32:00,
2013-06-03 13:37:00,68.8,42.9,29.90,SE,128,17.0,26.0,39,0.00,,,0.00,VWS V12.08,2013-06-03 18:37:00,
2013-06-03 13:42:00,68.6,42.7,29.89,SE,131,16.0,27.0,39,0.00,,,0.00,VWS V12.08,2013-06-03 18:42:00,
2013-06-03 13:47:00,68.7,43.4,29.88,South,177,18.0,27.0,40,0.00,,,0.00,VWS V12.08,2013-06-03 18:47:00,
2013-06-03 13:52:00,68.9,43.0,29.89,ESE,121,10.0,27.0,39,0.00,,,0.00,VWS V12.08,2013-06-03 18:52:00,
2013-06-03 13:57:00,68.9,43.6,29.89,East,100,11.0,27.0,40,0.00,,,0.00,VWS V12.08,2013-06-03 18:57:00,
2013-06-03 14:02:00,69.1,41.8,29.89,SE,140,5.0,23.0,37,0.00,,,0.00,VWS V12.08,2013-06-03 19:02:00,
2013-06-03 14:07:00,69.6,43.6,29.89,SE,140,5.0,23.0,39,0.00,,,0.00,VWS V12.08,2013-06-03 19:07:00,
2013-06-03 14:12:00,69.7,42.3,29.89,ESE,117,12.0,26.0,37,0.00,,,0.00,VWS V12.08,2013-06-03 19:12:00,
2013-06-03 14:17:00,70.0,42.6,29.89,SE,139,17.0,28.0,37,0.00,,,0.00,VWS V12.08,2013-06-03 19:17:00,
2013-06-03 14:22:00,69.7,43.7,29.89,ESE,116,18.0,28.0,39,0.00,,,0.00,VWS V12.08,2013-06-03 19:22:00,
2013-06-03 14:27:00,69.9,43.2,29.88,SE,130,18.0,28.0,38,0.00,,,0.00,VWS V12.08,2013-06-03 19:27:00,
2013-06-03 14:32:00,69.8,43.8,29.87,ESE,115,18.0,25.0,39,0.00,,,0.00,VWS V12.08,2013-06-03 19:32:00,
2013-06-03 14:37:00,70.3,44.2,29.87,East,87,10.0,25.0,39,0.00,,,0.00,VWS V12.08,2013-06-03 19:37:00,
2013-06-03 14:42:00,70.5,43.7,29.87,SSE,151,12.0,25.0,38,0.00,,,0.00,VWS V12.08,2013-06-03 19:42:00,
2013-06-03 14:47:00,70.7,43.2,29.87,SE,142,10.0,25.0,37,0.00,,,0.00,VWS V12.08,2013-06-03 19:47:00,
2013-06-03 14:52:00,70.7,43.9,29.87,SE,135,13.0,27.0,38,0.00,,,0.00,VWS V12.08,2013-06-03 19:52:00,
2013-06-03 14:57:00,71.1,44.2,29.87,East,96,18.0,27.0,38,0.00,,,0.00,VWS V12.08,2013-06-03 19:57:00,
2013-06-03 15:02:00,70.8,41.8,29.87,ESE,118,13.0,19.0,35,0.00,,,0.00,VWS V12.08,2013-06-03 20:02:00,
2013-06-03 15:07:00,70.2,43.4,29.87,SE,132,15.0,24.0,38,0.00,,,0.00,VWS V12.08,2013-06-03 20:07:00,
2013-06-03 15:12:00,70.7,44.5,29.86,ESE,123,18.0,24.0,39,0.00,,,0.00,VWS V12.08,2013-06-03 20:12:00,
2013-06-03 15:17:00,70.7,44.5,29.86,East,100,12.0,27.0,39,0.00,,,0.00,VWS V12.08,2013-06-03 20:17:00,
2013-06-03 15:22:00,71.1,44.9,29.86,East,80,15.0,27.0,39,0.00,,,0.00,VWS V12.08,2013-06-03 20:22:00,
2013-06-03 15:27:00,71.6,45.4,29.86,ESE,117,19.0,27.0,39,0.00,,,0.00,VWS V12.08,2013-06-03 20:27:00,
2013-06-03 15:32:00,71.2,45.0,29.85,East,96,11.0,23.0,39,0.00,,,0.00,VWS V12.08,2013-06-03 20:32:00,
2013-06-03 15:37:00,71.4,44.5,29.85,East,101,17.0,26.0,38,0.00,,,0.00,VWS V12.08,2013-06-03 20:37:00,
2013-06-03 15:42:00,71.4,44.5,29.84,SE,133,14.0,27.0,38,0.00,,,0.00,VWS V12.08,2013-06-03 20:42:00,
2013-06-03 15:47:00,71.5,44.6,29.84,East,101,13.0,27.0,38,0.00,,,0.00,VWS V12.08,2013-06-03 20:47:00,
2013-06-03 15:52:00,71.6,44.7,29.83,ESE,111,12.0,27.0,38,0.00,,,0.00,VWS V12.08,2013-06-03 20:52:00,
2013-06-03 15:57:00,71.6,44.7,29.84,SE,143,16.0,29.0,38,0.00,,,0.00,VWS V12.08,2013-06-03 20:57:00,
2013-06-03 16:02:00,71.9,44.2,29.83,SSE,148,10.0,24.0,37,0.00,,,0.00,VWS V12.08,2013-06-03 21:02:00,
2013-06-03 16:07:00,71.8,44.8,29.83,NE,52,20.0,28.0,38,0.00,,,0.00,VWS V12.08,2013-06-03 21:07:00,
2013-06-03 16:12:00,71.7,45.5,29.83,South,169,9.0,29.0,39,0.00,,,0.00,VWS V12.08,2013-06-03 21:12:00,
2013-06-03 16:17:00,71.7,44.1,29.82,ESE,123,11.0,30.0,37,0.00,,,0.00,VWS V12.08,2013-06-03 21:17:00,
2013-06-03 16:22:00,72.0,45.0,29.82,ESE,119,12.0,30.0,38,0.00,,,0.00,VWS V12.08,2013-06-03 21:22:00,
2013-06-03 16:27:00,72.1,44.4,29.82,ESE,111,21.0,30.0,37,0.00,,,0.00,VWS V12.08,2013-06-03 21:27:00,
2013-06-03 16:32:00,71.8,44.2,29.82,East,98,19.0,25.0,37,0.00,,,0.00,VWS V12.08,2013-06-03 21:32:00,
2013-06-03 16:37:00,71.9,44.9,29.81,SSE,150,12.0,28.0,38,0.00,,,0.00,VWS V12.08,2013-06-03 21:37:00,
2013-06-03 16:42:00,72.3,45.3,29.81,ESE,108,14.0,31.0,38,0.00,,,0.00,VWS V12.08,2013-06-03 21:42:00,
2013-06-03 16:47:00,72.7,45.7,29.81,SE,136,16.0,31.0,38,0.00,,,0.00,VWS V12.08,2013-06-03 21:47:00,
2013-06-03 16:52:00,72.4,45.4,29.81,ESE,121,26.0,31.0,38,0.00,,,0.00,VWS V12.08,2013-06-03 21:52:00,
2013-06-03 16:57:00,72.2,45.9,29.81,ESE,103,26.0,31.0,39,0.00,,,0.00,VWS V12.08,2013-06-03 21:57:00,
2013-06-03 17:02:00,72.7,45.7,29.80,ESE,112,21.0,21.0,38,0.00,,,0.00,VWS V12.08,2013-06-03 22:02:00,
2013-06-03 17:07:00,72.7,45.7,29.80,SE,128,22.0,28.0,38,0.00,,,0.00,VWS V12.08,2013-06-03 22:07:00,
2013-06-03 17:12:00,72.3,45.3,29.80,ESE,120,20.0,31.0,38,0.00,,,0.00,VWS V12.08,2013-06-03 22:12:00,
2013-06-03 17:17:00,72.1,45.1,29.80,ESE,113,17.0,31.0,38,0.00,,,0.00,VWS V12.08,2013-06-03 22:17:00,
2013-06-03 17:22:00,72.1,45.8,29.80,ESE,109,15.0,31.0,39,0.00,,,0.00,VWS V12.08,2013-06-03 22:22:00,
2013-06-03 17:27:00,72.2,45.9,29.80,ESE,108,20.0,31.0,39,0.00,,,0.00,VWS V12.08,2013-06-03 22:27:00,
2013-06-03 17:32:00,72.2,46.6,29.80,SE,145,12.0,23.0,40,0.00,,,0.00,VWS V12.08,2013-06-03 22:32:00,
2013-06-03 17:37:00,72.9,47.2,29.80,ESE,118,15.0,25.0,40,0.00,,,0.00,VWS V12.08,2013-06-03 22:37:00,
2013-06-03 17:42:00,72.7,47.0,29.80,ESE,115,26.0,27.0,40,0.00,,,0.00,VWS V12.08,2013-06-03 22:42:00,
2013-06-03 17:47:00,72.6,46.9,29.80,SE,134,23.0,28.0,40,0.00,,,0.00,VWS V12.08,2013-06-03 22:47:00,
2013-06-03 17:52:00,72.3,46.7,29.80,ESE,109,21.0,35.0,40,0.00,,,0.00,VWS V12.08,2013-06-03 22:52:00,
2013-06-03 17:57:00,72.3,46.0,29.80,SE,135,22.0,35.0,39,0.00,,,0.00,VWS V12.08,2013-06-03 22:57:00,
2013-06-03 18:02:00,72.1,46.5,29.80,ENE,74,15.0,31.0,40,0.00,,,0.00,VWS V12.08,2013-06-03 23:02:00,
2013-06-03 18:07:00,72.0,45.7,29.81,SE,129,23.0,33.0,39,0.00,,,0.00,VWS V12.08,2013-06-03 23:07:00,
2013-06-03 18:12:00,71.9,46.3,29.80,SE,124,11.0,33.0,40,0.00,,,0.00,VWS V12.08,2013-06-03 23:12:00,
2013-06-03 18:17:00,72.1,47.1,29.81,SSE,151,20.0,33.0,41,0.00,,,0.00,VWS V12.08,2013-06-03 23:17:00,
2013-06-03 18:22:00,72.1,46.5,29.81,SE,136,22.0,33.0,40,0.00,,,0.00,VWS V12.08,2013-06-03 23:22:00,
2013-06-03 18:27:00,72.1,47.1,29.81,SE,136,17.0,33.0,41,0.00,,,0.00,VWS V12.08,2013-06-03 23:27:00,
2013-06-03 18:32:00,72.0,47.0,29.81,ESE,119,18.0,22.0,41,0.00,,,0.00,VWS V12.08,2013-06-03 23:32:00,
2013-06-03 18:37:00,72.0,47.0,29.82,ESE,113,15.0,27.0,41,0.00,,,0.00,VWS V12.08,2013-06-03 23:37:00,
2013-06-03 18:42:00,72.1,47.1,29.81,SSE,158,11.0,27.0,41,0.00,,,0.00,VWS V12.08,2013-06-03 23:42:00,
2013-06-03 18:47:00,71.9,47.0,29.81,SSW,211,23.0,28.0,41,0.00,,,0.00,VWS V12.08,2013-06-03 23:47:00,
2013-06-03 18:52:00,71.7,46.1,29.81,ESE,109,18.0,29.0,40,0.00,,,0.00,VWS V12.08,2013-06-03 23:52:00,
2013-06-03 18:57:00,71.5,46.6,29.82,SE,139,18.0,29.0,41,0.00,,,0.00,VWS V12.08,2013-06-03 23:57:00,
2013-06-03 19:02:00,71.2,46.3,29.82,SE,139,16.0,27.0,41,0.00,,,0.00,VWS V12.08,2013-06-04 00:02:00,
2013-06-03 19:07:00,70.9,46.7,29.82,SSE,157,18.0,27.0,42,0.00,,,0.00,VWS V12.08,2013-06-04 00:07:00,
2013-06-03 19:12:00,70.7,47.1,29.82,ESE,115,20.0,28.0,43,0.00,,,0.00,VWS V12.08,2013-06-04 00:12:00,
2013-06-03 19:17:00,70.7,47.1,29.82,ESE,119,18.0,28.0,43,0.00,,,0.00,VWS V12.08,2013-06-04 00:17:00,
2013-06-03 19:22:00,70.6,47.0,29.83,ESE,117,15.0,28.0,43,0.00,,,0.00,VWS V12.08,2013-06-04 00:22:00,
2013-06-03 19:27:00,70.6,47.0,29.82,SE,141,16.0,28.0,43,0.00,,,0.00,VWS V12.08,2013-06-04 00:27:00,
2013-06-03 19:32:00,70.4,46.9,29.83,SE,124,26.0,29.0,43,0.00,,,0.00,VWS V12.08,2013-06-04 00:32:00,
2013-06-03 19:37:00,70.4,47.5,29.83,East,93,23.0,29.0,44,0.00,,,0.00,VWS V12.08,2013-06-04 00:37:00,
2013-06-03 19:42:00,70.4,47.5,29.83,ESE,112,14.0,29.0,44,0.00,,,0.00,VWS V12.08,2013-06-04 00:42:00,
2013-06-03 19:47:00,70.5,48.2,29.83,SE,131,23.0,29.0,45,0.00,,,0.00,VWS V12.08,2013-06-04 00:47:00,
2013-06-03 19:52:00,70.4,48.1,29.84,ESE,120,19.0,29.0,45,0.00,,,0.00,VWS V12.08,2013-06-04 00:52:00,
2013-06-03 19:57:00,70.4,48.1,29.84,SSE,150,15.0,29.0,45,0.00,,,0.00,VWS V12.08,2013-06-04 00:57:00,
2013-06-03 20:02:00,70.2,48.5,29.84,SE,124,14.0,19.0,46,0.00,,,0.00,VWS V12.08,2013-06-04 01:02:00,
2013-06-03 20:07:00,69.9,48.2,29.84,ESE,119,19.0,23.0,46,0.00,,,0.00,VWS V12.08,2013-06-04 01:07:00,
2013-06-03 20:12:00,69.7,48.0,29.84,SE,137,13.0,23.0,46,0.00,,,0.00,VWS V12.08,2013-06-04 01:12:00,
2013-06-03 20:17:00,69.5,48.4,29.85,WSW,238,11.0,23.0,47,0.00,,,0.00,VWS V12.08,2013-06-04 01:17:00,
2013-06-03 20:22:00,69.4,48.3,29.85,South,191,10.0,24.0,47,0.00,,,0.00,VWS V12.08,2013-06-04 01:22:00,
2013-06-03 20:27:00,69.3,48.2,29.85,SE,134,9.0,25.0,47,0.00,,,0.00,VWS V12.08,2013-06-04 01:27:00,
2013-06-03 20:32:00,69.2,48.1,29.85,ESE,116,13.0,16.0,47,0.00,,,0.00,VWS V12.08,2013-06-04 01:32:00,
2013-06-03 20:37:00,69.1,48.6,29.86,ESE,119,13.0,19.0,48,0.00,,,0.00,VWS V12.08,2013-06-04 01:37:00,
2013-06-03 20:42:00,68.9,48.4,29.86,ESE,115,13.0,20.0,48,0.00,,,0.00,VWS V12.08,2013-06-04 01:42:00,
2013-06-03 20:47:00,68.7,48.8,29.86,ESE,106,15.0,23.0,49,0.00,,,0.00,VWS V12.08,2013-06-04 01:47:00,
2013-06-03 20:52:00,68.5,48.6,29.85,SE,134,9.0,23.0,49,0.00,,,0.00,VWS V12.08,2013-06-04 01:52:00,
2013-06-03 20:57:00,68.2,48.9,29.86,ESE,113,9.0,23.0,50,0.00,,,0.00,VWS V12.08,2013-06-04 01:57:00,
2013-06-03 21:02:00,68.0,48.7,29.86,ESE,121,12.0,15.0,50,0.00,,,0.00,VWS V12.08,2013-06-04 02:02:00,
2013-06-03 21:07:00,67.8,48.5,29.86,East,96,6.0,17.0,50,0.00,,,0.00,VWS V12.08,2013-06-04 02:07:00,
2013-06-03 21:12:00,67.6,48.3,29.86,SE,138,9.0,17.0,50,0.00,,,0.00,VWS V12.08,2013-06-04 02:12:00,
2013-06-03 21:17:00,67.5,48.2,29.87,SE,128,9.0,19.0,50,0.00,,,0.00,VWS V12.08,2013-06-04 02:17:00,
2013-06-03 21:22:00,67.3,48.0,29.86,East,96,10.0,19.0,50,0.00,,,0.00,VWS V12.08,2013-06-04 02:22:00,
2013-06-03 21:27:00,67.1,47.9,29.86,SSE,151,5.0,19.0,50,0.00,,,0.00,VWS V12.08,2013-06-04 02:27:00,
2013-06-03 21:32:00,67.0,47.8,29.87,ESE,105,12.0,14.0,50,0.00,,,0.00,VWS V12.08,2013-06-04 02:32:00,
2013-06-03 21:37:00,66.7,48.0,29.88,ENE,76,5.0,14.0,51,0.00,,,0.00,VWS V12.08,2013-06-04 02:37:00,
2013-06-03 21:42:00,66.4,47.7,29.88,ESE,116,8.0,18.0,51,0.00,,,0.00,VWS V12.08,2013-06-04 02:42:00,
2013-06-03 21:47:00,66.2,47.6,29.88,SSW,196,3.0,18.0,51,0.00,,,0.00,VWS V12.08,2013-06-04 02:47:00,
2013-06-03 21:52:00,66.1,48.0,29.89,ESE,103,13.0,18.0,52,0.00,,,0.00,VWS V12.08,2013-06-04 02:52:00,
2013-06-03 21:57:00,66.0,47.4,29.89,SSE,168,10.0,18.0,51,0.00,,,0.00,VWS V12.08,2013-06-04 02:57:00,
2013-06-03 22:02:00,66.0,47.9,29.89,ESE,112,13.0,13.0,52,0.00,,,0.00,VWS V12.08,2013-06-04 03:02:00,
2013-06-03 22:07:00,65.9,47.8,29.90,SSW,213,6.0,14.0,52,0.00,,,0.00,VWS V12.08,2013-06-04 03:07:00,
2013-06-03 22:12:00,65.8,47.7,29.89,SSE,147,12.0,15.0,52,0.00,,,0.00,VWS V12.08,2013-06-04 03:12:00,
2013-06-03 22:17:00,65.6,47.5,29.89,SE,140,4.0,15.0,52,0.00,,,0.00,VWS V12.08,2013-06-04 03:17:00,
2013-06-03 22:22:00,65.5,47.4,29.89,East,84,12.0,16.0,52,0.00,,,0.00,VWS V12.08,2013-06-04 03:22:00,
2013-06-03 22:27:00,65.3,47.8,29.89,SE,136,9.0,16.0,53,0.00,,,0.00,VWS V12.08,2013-06-04 03:27:00,
2013-06-03 22:32:00,65.1,47.6,29.88,ESE,113,6.0,14.0,53,0.00,,,0.00,VWS V12.08,2013-06-04 03:32:00,
2013-06-03 22:37:00,65.0,47.5,29.88,ESE,110,7.0,16.0,53,0.00,,,0.00,VWS V12.08,2013-06-04 03:37:00,
2013-06-03 22:42:00,65.0,47.5,29.88,ESE,123,5.0,16.0,53,0.00,,,0.00,VWS V12.08,2013-06-04 03:42:00,
2013-06-03 22:47:00,65.0,47.5,29.87,East,96,9.0,16.0,53,0.00,,,0.00,VWS V12.08,2013-06-04 03:47:00,
2013-06-03 22:52:00,64.7,47.2,29.87,ESE,117,9.0,17.0,53,0.00,,,0.00,VWS V12.08,2013-06-04 03:52:00,
2013-06-03 22:57:00,64.6,47.6,29.87,ENE,63,4.0,17.0,54,0.00,,,0.00,VWS V12.08,2013-06-04 03:57:00,
2013-06-03 23:01:00,64.5,47.5,29.88,ESE,103,8.0,9.0,54,0.00,,,0.00,VWS V12.08,2013-06-04 04:01:00,
2013-06-03 23:06:00,64.3,47.8,29.88,ESE,121,12.0,14.0,55,0.00,,,0.00,VWS V12.08,2013-06-04 04:06:00,
2013-06-03 23:11:00,64.0,47.5,29.87,ESE,112,9.0,18.0,55,0.00,,,0.00,VWS V12.08,2013-06-04 04:11:00,
2013-06-03 23:16:00,63.9,47.4,29.87,SE,141,7.0,18.0,55,0.00,,,0.00,VWS V12.08,2013-06-04 04:16:00,
2013-06-03 23:21:00,63.8,47.8,29.87,ENE,78,9.0,18.0,56,0.00,,,0.00,VWS V12.08,2013-06-04 04:21:00,
2013-06-03 23:26:00,63.7,47.7,29.87,SE,136,11.0,18.0,56,0.00,,,0.00,VWS V12.08,2013-06-04 04:26:00,
2013-06-03 23:31:00,63.5,48.0,29.86,ESE,115,13.0,14.0,57,0.00,,,0.00,VWS V12.08,2013-06-04 04:31:00,
2013-06-03 23:36:00,63.4,47.9,29.86,SE,135,13.0,20.0,57,0.00,,,0.00,VWS V12.08,2013-06-04 04:36:00,
2013-06-03 23:41:00,63.3,48.3,29.85,ESE,121,10.0,20.0,58,0.00,,,0.00,VWS V12.08,2013-06-04 04:41:00,
2013-06-03 23:46:00,63.2,48.2,29.85,ESE,109,12.0,20.0,58,0.00,,,0.00,VWS V12.08,2013-06-04 04:46:00,
2013-06-03 23:51:00,63.0,48.5,29.85,East,98,14.0,20.0,59,0.00,,,0.00,VWS V12.08,2013-06-04 04:51:00,
2013-06-03 23:56:00,63.0,48.5,29.85,East,89,9.0,20.0,59,0.00,,,0.00,VWS V12.08,2013-06-04 04:56:00,